User: anonymous   Login
Location: Los Gatos B&B
(42.6926°N, 77.0646°W)
Time: 09:20:11
(UTC-04:00)
Language:

SL-16 R/B - Orbit

View from above orbital plane
View from above orbital plane
View from above satellite
View from above satellite

Ground track
Ground track

The orbit data is extracted from the following two-line orbital elements,

1 28353U 04021B   15208.86002511 -.00000132  00000-0 -44237-4 0  9999
2 28353 071.0002 086.1441 0005222 191.0069 169.0940 14.14152390574560
Epoch (UTC): 27 July 2015 20:38:26
Eccentricity: 0.0005222
inclination: 71.0002°
perigee height: 841 km
apogee height: 849 km
right ascension of ascending node: 86.1441°
argument of perigee: 191.0069°
revolutions per day: 14.14152390
mean anomaly at epoch: 169.0940°
orbit number at epoch: 57456

The dashed part of the orbit path shows where the satellite is in the earth's shadow,  

DLR